Time,TemperatureF,DewpointF,PressureIn,WindDirection,WindDirectionDegrees,WindSpeedMPH,WindSpeedGustMPH,Humidity,HourlyPrecipIn,Conditions,Clouds,dailyrainin,SolarRadiationWatts/m^2,SoftwareType,DateUTC
2013-04-25 00:02:00,53.0,51.0,-100.00,NNW,340,7.0,15.0,93,0.00,,,0.85,0.000000,,2013-04-25 05:02:00,
2013-04-25 00:32:00,52.0,49.0,-100.00,North,359,9.0,15.0,91,0.00,,,0.85,0.000000,,2013-04-25 05:32:00,
2013-04-25 00:42:00,52.0,49.0,-100.00,North,359,9.0,15.0,91,0.00,,,0.85,0.000000,,2013-04-25 05:42:00,
2013-04-25 00:52:00,52.0,49.0,-100.00,North,359,9.0,15.0,91,0.00,,,0.85,0.000000,,2013-04-25 05:52:00,
2013-04-25 01:02:00,52.0,49.0,-100.00,North,359,9.0,15.0,91,0.00,,,0.85,0.000000,,2013-04-25 06:02:00,
2013-04-25 02:32:00,51.0,50.0,-100.00,North,357,8.0,14.0,95,-99.99,,,0.85,0.000000,,2013-04-25 07:32:00,
2013-04-25 02:42:00,51.0,50.0,-100.00,North,357,8.0,14.0,95,-99.99,,,0.85,0.000000,,2013-04-25 07:42:00,
2013-04-25 02:52:00,51.0,50.0,-100.00,North,357,8.0,14.0,95,-99.99,,,0.85,0.000000,,2013-04-25 07:52:00,
2013-04-25 03:01:00,51.0,50.0,-100.00,North,357,8.0,14.0,95,-99.99,,,0.85,0.000000,,2013-04-25 08:01:00,
2013-04-25 03:32:00,50.0,49.0,-100.00,North,7,6.0,12.0,98,0.00,,,0.85,0.000000,,2013-04-25 08:32:00,
2013-04-25 03:42:00,50.0,49.0,-100.00,North,7,6.0,12.0,98,0.00,,,0.85,0.000000,,2013-04-25 08:42:00,
2013-04-25 03:52:00,50.0,49.0,-100.00,North,7,6.0,12.0,98,0.00,,,0.85,0.000000,,2013-04-25 08:52:00,
2013-04-25 04:01:00,50.0,49.0,-100.00,North,7,6.0,12.0,98,0.00,,,0.85,0.000000,,2013-04-25 09:01:00,
2013-04-25 04:33:00,50.0,50.0,-100.00,NNE,17,7.0,12.0,100,0.00,,,0.85,0.000000,,2013-04-25 09:33:00,
2013-04-25 04:42:00,50.0,50.0,-100.00,NNE,17,7.0,12.0,100,0.00,,,0.85,0.000000,,2013-04-25 09:42:00,
2013-04-25 04:52:00,50.0,50.0,-100.00,NNE,17,7.0,12.0,100,0.00,,,0.85,0.000000,,2013-04-25 09:52:00,
2013-04-25 05:02:00,50.0,50.0,-100.00,NNE,17,7.0,12.0,100,0.00,,,0.85,0.000000,,2013-04-25 10:02:00,
2013-04-25 05:33:00,50.0,50.0,-100.00,NNE,24,9.0,14.0,99,0.00,,,0.85,0.000000,,2013-04-25 10:33:00,
2013-04-25 05:42:00,50.0,50.0,-100.00,NNE,24,9.0,14.0,99,0.00,,,0.85,0.000000,,2013-04-25 10:42:00,
2013-04-25 05:53:00,50.0,50.0,-100.00,NNE,24,9.0,14.0,99,0.00,,,0.85,0.000000,,2013-04-25 10:53:00,
2013-04-25 06:02:00,50.0,50.0,-100.00,NNE,24,9.0,14.0,99,0.00,,,0.85,0.000000,,2013-04-25 11:02:00,
2013-04-25 06:33:00,50.0,49.0,-100.00,NNE,26,7.0,15.0,97,0.00,,,0.85,0.000000,,2013-04-25 11:33:00,
2013-04-25 06:42:00,50.0,49.0,-100.00,NNE,26,7.0,15.0,97,0.00,,,0.85,0.000000,,2013-04-25 11:42:00,
2013-04-25 06:52:00,50.0,49.0,-100.00,NNE,26,7.0,15.0,97,0.00,,,0.85,0.000000,,2013-04-25 11:52:00,
2013-04-25 07:01:00,50.0,49.0,-100.00,NNE,26,7.0,15.0,97,0.00,,,0.85,0.000000,,2013-04-25 12:01:00,
2013-04-25 08:32:00,51.0,48.0,-100.00,NNE,33,8.0,15.0,89,-99.99,,,-99.99,87.000000,,2013-04-25 13:32:00,
2013-04-25 08:42:00,51.0,48.0,-100.00,NNE,33,8.0,15.0,89,-99.99,,,-99.99,87.000000,,2013-04-25 13:42:00,
2013-04-25 08:52:00,51.0,48.0,-100.00,NNE,33,8.0,15.0,89,-99.99,,,-99.99,87.000000,,2013-04-25 13:52:00,
2013-04-25 09:02:00,51.0,48.0,-100.00,NNE,33,8.0,15.0,89,-99.99,,,-99.99,87.000000,,2013-04-25 14:02:00,
2013-04-25 09:32:00,52.0,49.0,-100.00,NNE,20,8.0,14.0,88,0.00,,,-99.99,158.000000,,2013-04-25 14:32:00,
2013-04-25 09:42:00,52.0,49.0,-100.00,NNE,20,8.0,14.0,88,0.00,,,-99.99,158.000000,,2013-04-25 14:42:00,
2013-04-25 09:52:00,52.0,49.0,-100.00,NNE,20,8.0,14.0,88,0.00,,,-99.99,158.000000,,2013-04-25 14:52:00,
2013-04-25 10:02:00,52.0,49.0,-100.00,NNE,20,8.0,14.0,88,0.00,,,-99.99,158.000000,,2013-04-25 15:02:00,
2013-04-25 10:33:00,54.0,48.0,-100.00,North,10,8.0,13.0,81,0.00,,,0.49,303.000000,,2013-04-25 15:33:00,
2013-04-25 10:42:00,54.0,48.0,-100.00,North,10,8.0,13.0,81,0.00,,,0.49,303.000000,,2013-04-25 15:42:00,
2013-04-25 10:53:00,54.0,48.0,-100.00,North,10,8.0,13.0,81,0.00,,,0.49,303.000000,,2013-04-25 15:53:00,
2013-04-25 11:02:00,54.0,48.0,-100.00,North,10,8.0,13.0,81,0.00,,,0.49,303.000000,,2013-04-25 16:02:00,
2013-04-25 11:33:00,59.0,48.0,-100.00,NNE,23,8.0,15.0,67,0.00,,,-99.99,653.000000,,2013-04-25 16:33:00,
2013-04-25 11:43:00,59.0,48.0,-100.00,NNE,23,8.0,15.0,67,0.00,,,-99.99,653.000000,,2013-04-25 16:43:00,
2013-04-25 11:52:00,59.0,48.0,-100.00,NNE,23,8.0,15.0,67,0.00,,,-99.99,653.000000,,2013-04-25 16:52:00,
2013-04-25 12:02:00,59.0,48.0,-100.00,NNE,23,8.0,15.0,67,0.00,,,-99.99,653.000000,,2013-04-25 17:02:00,
2013-04-25 12:32:00,64.0,47.0,-100.00,NE,56,7.0,16.0,54,0.00,,,0.12,779.000000,,2013-04-25 17:32:00,
2013-04-25 12:42:00,64.0,47.0,-100.00,NE,56,7.0,16.0,54,0.00,,,0.12,779.000000,,2013-04-25 17:42:00,
2013-04-25 12:53:00,64.0,47.0,-100.00,NE,56,7.0,16.0,54,0.00,,,0.12,779.000000,,2013-04-25 17:53:00,
2013-04-25 13:01:00,64.0,47.0,-100.00,NE,56,7.0,16.0,54,0.00,,,0.12,779.000000,,2013-04-25 18:01:00,
2013-04-25 13:32:00,66.0,42.0,-100.00,East,82,7.0,14.0,42,0.00,,,0.00,815.000000,,2013-04-25 18:32:00,
2013-04-25 13:43:00,66.0,42.0,-100.00,East,82,7.0,14.0,42,0.00,,,0.00,815.000000,,2013-04-25 18:43:00,
2013-04-25 13:53:00,66.0,42.0,-100.00,East,82,7.0,14.0,42,0.00,,,0.00,815.000000,,2013-04-25 18:53:00,
2013-04-25 14:01:00,66.0,42.0,-100.00,East,82,7.0,14.0,42,0.00,,,0.00,815.000000,,2013-04-25 19:01:00,
2013-04-25 14:32:00,69.0,39.0,-100.00,ENE,64,9.0,14.0,34,0.00,,,0.00,754.000000,,2013-04-25 19:32:00,
2013-04-25 14:42:00,69.0,39.0,-100.00,ENE,64,9.0,14.0,34,0.00,,,0.00,754.000000,,2013-04-25 19:42:00,
2013-04-25 14:52:00,69.0,39.0,-100.00,ENE,64,9.0,14.0,34,0.00,,,0.00,754.000000,,2013-04-25 19:52:00,
2013-04-25 15:02:00,69.0,39.0,-100.00,ENE,64,9.0,14.0,34,0.00,,,0.00,754.000000,,2013-04-25 20:02:00,
2013-04-25 15:32:00,68.0,39.0,-100.00,ENE,58,7.0,16.0,35,0.00,,,0.00,609.000000,,2013-04-25 20:32:00,
2013-04-25 15:43:00,68.0,39.0,-100.00,ENE,58,7.0,16.0,35,0.00,,,0.00,609.000000,,2013-04-25 20:43:00,
2013-04-25 15:52:00,68.0,39.0,-100.00,ENE,58,7.0,16.0,35,0.00,,,0.00,609.000000,,2013-04-25 20:52:00,
2013-04-25 16:01:00,68.0,39.0,-100.00,ENE,58,7.0,16.0,35,0.00,,,0.00,609.000000,,2013-04-25 21:01:00,
2013-04-25 16:33:00,68.0,40.0,-100.00,NE,50,8.0,14.0,36,0.00,,,0.00,595.000000,,2013-04-25 21:33:00,
2013-04-25 16:42:00,68.0,40.0,-100.00,NE,50,8.0,14.0,36,0.00,,,0.00,595.000000,,2013-04-25 21:42:00,
2013-04-25 16:53:00,68.0,40.0,-100.00,NE,50,8.0,14.0,36,0.00,,,0.00,595.000000,,2013-04-25 21:53:00,
2013-04-25 17:02:00,68.0,40.0,-100.00,NE,50,8.0,14.0,36,0.00,,,0.00,595.000000,,2013-04-25 22:02:00,
2013-04-25 17:33:00,66.0,42.0,-100.00,NE,51,5.0,16.0,42,0.00,,,0.00,275.000000,,2013-04-25 22:33:00,
2013-04-25 17:42:00,66.0,42.0,-100.00,NE,51,5.0,16.0,42,0.00,,,0.00,275.000000,,2013-04-25 22:42:00,
2013-04-25 17:53:00,66.0,42.0,-100.00,NE,51,5.0,16.0,42,0.00,,,0.00,275.000000,,2013-04-25 22:53:00,
2013-04-25 18:02:00,66.0,42.0,-100.00,NE,51,5.0,16.0,42,0.00,,,0.00,275.000000,,2013-04-25 23:02:00,
2013-04-25 18:32:00,66.0,45.0,-100.00,East,80,5.0,9.0,46,0.00,,,0.00,194.000000,,2013-04-25 23:32:00,
2013-04-25 18:42:00,66.0,45.0,-100.00,East,80,5.0,9.0,46,0.00,,,0.00,194.000000,,2013-04-25 23:42:00,
2013-04-25 18:52:00,66.0,45.0,-100.00,East,80,5.0,9.0,46,0.00,,,0.00,194.000000,,2013-04-25 23:52:00,
2013-04-25 19:01:00,66.0,45.0,-100.00,East,80,5.0,9.0,46,0.00,,,0.00,194.000000,,2013-04-26 00:01:00,
2013-04-25 19:32:00,63.0,46.0,-100.00,ENE,61,4.0,9.0,53,0.00,,,0.00,134.000000,,2013-04-26 00:32:00,
2013-04-25 19:42:00,63.0,46.0,-100.00,ENE,61,4.0,9.0,53,0.00,,,0.00,134.000000,,2013-04-26 00:42:00,
2013-04-25 19:52:00,63.0,46.0,-100.00,ENE,61,4.0,9.0,53,0.00,,,0.00,134.000000,,2013-04-26 00:52:00,
2013-04-25 20:01:00,63.0,46.0,-100.00,ENE,61,4.0,9.0,53,0.00,,,0.00,134.000000,,2013-04-26 01:01:00,
2013-04-25 20:32:00,58.0,47.0,-100.00,NE,43,4.0,6.0,66,0.00,,,0.00,7.000000,,2013-04-26 01:32:00,
2013-04-25 20:42:00,58.0,47.0,-100.00,NE,43,4.0,6.0,66,0.00,,,0.00,7.000000,,2013-04-26 01:42:00,
2013-04-25 20:52:00,58.0,47.0,-100.00,NE,43,4.0,6.0,66,0.00,,,0.00,7.000000,,2013-04-26 01:52:00,
2013-04-25 21:02:00,58.0,47.0,-100.00,NE,43,4.0,6.0,66,0.00,,,0.00,7.000000,,2013-04-26 02:02:00,
2013-04-25 21:32:00,55.0,50.0,-100.00,SE,140,2.0,7.0,82,0.00,,,0.00,0.000000,,2013-04-26 02:32:00,
2013-04-25 21:42:00,55.0,50.0,-100.00,SE,140,2.0,7.0,82,0.00,,,0.00,0.000000,,2013-04-26 02:42:00,
2013-04-25 21:52:00,55.0,50.0,-100.00,SE,140,2.0,7.0,82,0.00,,,0.00,0.000000,,2013-04-26 02:52:00,
2013-04-25 22:01:00,55.0,50.0,-100.00,SE,140,2.0,7.0,82,0.00,,,0.00,0.000000,,2013-04-26 03:01:00,
2013-04-25 22:33:00,54.0,49.0,-100.00,NE,40,4.0,6.0,84,0.00,,,0.00,0.000000,,2013-04-26 03:33:00,
2013-04-25 22:43:00,54.0,49.0,-100.00,NE,40,4.0,6.0,84,0.00,,,0.00,0.000000,,2013-04-26 03:43:00,
2013-04-25 22:53:00,54.0,49.0,-100.00,NE,40,4.0,6.0,84,0.00,,,0.00,0.000000,,2013-04-26 03:53:00,
2013-04-25 23:02:00,54.0,49.0,-100.00,NE,40,4.0,6.0,84,0.00,,,0.00,0.000000,,2013-04-26 04:02:00,
2013-04-25 23:33:00,52.0,50.0,-100.00,West,280,1.0,5.0,93,0.00,,,0.00,0.000000,,2013-04-26 04:33:00,
2013-04-25 23:43:00,52.0,50.0,-100.00,West,280,1.0,5.0,93,0.00,,,0.00,0.000000,,2013-04-26 04:43:00,
2013-04-25 23:53:00,52.0,50.0,-100.00,West,280,1.0,5.0,93,0.00,,,0.00,0.000000,,2013-04-26 04:53:00,